Regional Weather Roundup
Issued by NWS

Home | Current Version | Previous Version | Graphics & Text | Print | Product List | Glossary On
Versions: 1 2 3 4 5 6 7 8 9 10 11 12 13 14 15 16 17 18 19 20 21 22 23 24 25 26 27 28 29 30 31 32 33 34 35 36 37 38 39 40 41 42 43 44 45 46 47 48 49 50
000
ASUS43 KLOT 302222
RWRIL

ILLINOIS REGIONAL WEATHER ROUNDUP
NATIONAL WEATHER SERVICE CHICAGO/ROMEOVILLE IL
500 PM CDT SAT MAY 30 2015

NOTE: "FAIR" INDICATES FEW OR NO CLOUDS BELOW 12,000 FEET WITH NO
SIGNIFICANT WEATHER AND/OR OBSTRUCTIONS TO VISIBILITY.

* THESE STATIONS ARE NOT UNDER NWS QUALITY CONTROL. THEY ALSO MAY NOT
  REPORT WEATHER SUCH AS PRECIPITATION OR FOG.

ILZ001-002-007-009-015-016-024-302300-
NORTHWEST ILLINOIS

CITY           SKY/WX    TMP DP  RH WIND       PRES   REMARKS
MOLINE         CLOUDY    57  50  77 NE20G28   30.07R
STERLING*      CLOUDY    55  48  76 NE17G25   30.08R
SAVANNA*       CLOUDY    56  49  78 NE15G22   30.10R
$$

ILZ003-004-008-010-011-017-018-302300-
NORTH CENTRAL ILLINOIS

CITY           SKY/WX    TMP DP  RH WIND       PRES   REMARKS
ROCKFORD       CLOUDY    52  46  80 NE20G30   30.12R
FREEPORT*      CLOUDY    51  48  90 NE28      30.13R
ROCHELLE*      DRIZZLE   51  48  89 NE24G36   30.08R
DE KALB*       CLOUDY    49  47  90 NE26G35   30.07S
PERU*          DRIZZLE   55  53  93 NE25G33   30.04R
$$

ILZ005-006-012>014-019>023-302300-
NORTHEAST ILLINOIS

CITY           SKY/WX    TMP DP  RH WIND       PRES   REMARKS
CHICAGO-OHARE  LGT RAIN  48  46  93 N22       30.07R FOG
CHICAGO-MIDWAY RAIN      50  47  89 N15G26    30.07R FOG
AURORA         LGT RAIN  52  48  86 NE26G33   30.05S
LANSING*       LGT RAIN  48  45  91 N14G24    30.04S
JOLIET*        LGT RAIN  51  50  95 NE13G30   30.04S
WAUKEGAN       LGT RAIN  46  43  89 N20G35    30.09R
DUPAGE AIRPORT LGT RAIN  51  48  89 NE23G30   30.06S
KANKAKEE*      RAIN      51  49  93 N17G28    30.00S
WHEELING       LGT RAIN  47  44  90 N21G36    30.10R
MORRIS*        RAIN      52  50  93 NE9G18    30.00S
ROMEOVILLE*    RAIN      49  47  94 NE25G32   30.04S
NORTHERLY ISL    N/A     47  45  93 N20         N/A
$$

LMZ740>746-302300-
SOUTHERN LAKE MICHIGAN

STATION/POSITION SKY/WX   TEMP    WIND        PRES    VSBY  WAVE
                          AIR SEA DIR/SP/G                  HT/PER
                          (F)     (DEG/KT/KT) (MB)    (MI)  (FT/S)
SOUTHERN BUOY              42 38  360/ 23/ 27 1018.0S         8/ 7
HARRISON CRIB              46     350/ 30/ 35   N/A
BURNHAM HARBOR             47     350/ 18/ 28   N/A
CALUMET HARBOR             47     340/ 13/ 21   N/A
BURNS HARBOR               47      10/ 14/ 16 1017.6R
MICHIGAN CITY              48     360/ 17/ 20   N/A
MICHIGAN CITY 6N           48 56   20/ 14/ 19   N/A           5/ 5
ST. JOSEPH                 53 57   40/ 19/ 23   N/A           5/ 4
$$

ILZ025>027-034>036-040-047-049-050-058-095>099-302300-
WEST-CENTRAL ILLINOIS

CITY           SKY/WX    TMP DP  RH WIND       PRES   REMARKS
QUINCY         CLOUDY    65  63  93 NW15      29.99S FOG
GALESBURG*     CLOUDY    58  56  91 N24       30.02R
MACOMB*        CLOUDY    65  64  93 N15G22    30.00S FOG
JACKSONVILLE*  LGT RAIN  69  66  90 N7        29.95S
PITTSFIELD*    CLOUDY    69  64  84 NW15      29.97S
$$

ILZ028>032-037-038-041>044-048-051>054-059>061-302300-
CENTRAL ILLINOIS

CITY           SKY/WX    TMP DP  RH WIND       PRES   REMARKS
PONTIAC        LGT RAIN  56  55  97 NE24G33   30.00R
BLOOMINGTON    HVY RAIN  67  67 100 N14       29.96S FOG
DECATUR        LGT RAIN  69  66  90 N13G23    29.92S
PEORIA         LGT RAIN  65  60  84 NE23G30   29.97R
LACON*         RAIN      56  54  91 NE12G20   30.01R
LINCOLN*       LGT RAIN  69  66  90 N7        29.92F
SPRINGFIELD    LGT RAIN  70  66  87 N8        29.94F
TAYLORVILLE    RAIN      64  64 100 N13       29.92F
$$

ILZ033-039-045-046-055>057-062-063-302300-
EAST-CENTRAL ILLINOIS

CITY           SKY/WX    TMP DP  RH WIND       PRES   REMARKS
CHAMPAIGN      LGT RAIN  74  69  85 NE3       29.89F
DANVILLE*      RAIN      73  66  77 W3        29.87F
RANTOUL*       CLOUDY    74  70  89 NE5       29.90F
MATTOON        HVY RAIN  69  67  93 SE17G29   29.91R VSB 3/4
PARIS*         PTSUNNY   76  70  82 N3        29.89F
$$

ILZ079-100>102-302300-
SOUTHWEST ILLINOIS

CITY           SKY/WX    TMP DP  RH WIND       PRES   REMARKS
ALTON          CLOUDY    68  68 100 NW12      29.93
BELLEVILLE     PTSUNNY   69  69  99 N12       29.91R
CAHOKIA*       CLOUDY    72  66  81 N12       29.92S
SPARTA*        CLOUDY    69  67  93 N8        29.92R
$$

ILZ064>066-069>071-074>076-080>082-084>086-088>090-092>094-302300-
SOUTH-CENTRAL ILLINOIS

CITY           SKY/WX    TMP DP  RH WIND       PRES   REMARKS
CARBONDALE     LGT RAIN  70  67  90 W12G21    29.88S
CAIRO*         CLOUDY    71  69  94 SW14G20   29.91R
EFFINGHAM*     RAIN      68  64  86 SE7       29.92R
MARION         LGT RAIN  72  70  94 S8        29.89F FOG
MT. VERNON     CLOUDY    72  64  78 S8        29.90F
CENTRALIA*     CLOUDY    71  68  90 CALM      29.89F
SALEM*         LGT RAIN  71  68  89 CALM      29.90F
$$

ILZ067-068-072-073-078-083-087-091-302300-
SOUTHEAST ILLINOIS

CITY           SKY/WX    TMP DP  RH WIND       PRES   REMARKS
LAWRENCEVILLE  PTSUNNY   80  67  64 SE12      29.88F HX  82
FLORA*         PTSUNNY   70  66  88 SW8       29.91F
FAIRFIELD*     CLOUDY    71  67  88 S12G17    29.89F
HARRISBURG*    CLOUDY    73  67  84 S12G18    29.91F
ROBINSON*      PTSUNNY   74  67  79 SW9       29.89F
CARMI*         TSTM      70  64  83 S12       29.90S
$$

ABBREVIATIONS USED IN REMARKS
   TC - TEMPERATURE IN CELSIUS
  WCI - WIND CHILL INDEX
   HX - HEAT INDEX
  VSB - VISIBILITY
$$




USA.gov is the U.S. government's official web portal to all federal, state and local government web resources and services.